DECAYED

THORAD AGENA D DEB, 17717 (Decayed)

Orbit data source: Space-Track

THORAD AGENA D DEB, 17717 was space debris in SSO originally from a launch on Wed, 08 Apr 1970 UTC launched from the Air Force Western Test Range (AFWTR). Debris objects in space refer to the collection of defunct objects orbiting the Earth. Examples of debris include non-operational satellites, rocket bodies, and fragments generated from explosions, collisions, or faulty payload assembly.

Not visible in the next 10 days
Identifier
17717, 1970-025PF
Orbit
Decayed
Country
Flag of USUS
Related business
Manufacturer
Unknown
Mission
Decayed spacecraft
Bus & Motor
Unknown
Mass
Unknown
Launch date (UTC)
1970-04-08 (56 years ago)
Launch vehicle
Unknown
Launch site
Air Force Western Test Range (AFWTR)
Object type
Payload
Rocket body
Debris
Shape & HBR
Unknown shape, 0.1 m
Radar Cross Section
Medium (>0.1 m² and <1 m²)

Expand to show TLE details & history
Last TLE update: 6 months ago

TLE from 6 months ago
0 THORAD AGENA D DEB
1 17717U 70025PF  26087.70979276  .07968586  40050-5  49197-2 0  9992
2 17717  99.9041 157.0611 0010677 252.7155 107.2956 16.17856097153410
Epoch: 2026-03-28T17:02Z
TLE epoch observation values (Epoch: 2026-03-28T17:02:06.094Z)
Latitude
-0.00004°
Longitude
75.40958°
Altitude
230.618 km
Speed
7.767 km/s
True Right ascension
10h 28m 14s
True Declination
0° 00' 00"
Sunlit
Object was in full shadow at epoch
Visualization orbit readout
Latitude
Unknown
Longitude
Unknown
Altitude
Unknown
Speed
Unknown
Apparent Right ascension
Unknown
Apparent Declination
Unknown
Sunlit
N/A
Visualization observer readout
Local Sidereal Time
03:12:46
Azimuth
Unknown
Elevation
Unknown
Doppler factor
Unknown
Orbital elements
Apogee altitude
229.393 km
Perigee altitude
215.298 km
Semi-major axis
6,600.483 km
Eccentricity
0.00107
Inclination
99.9041°
RAAN
157.0611°
Arg. of periapsis
252.7155°
True anomaly
107.41237°
Mean anomaly
107.2956°
Eccentric anomaly
107.35399°
Mean motion
4.04743 °/min
Orbital period
88.95 mins
BSTAR
0.0049197

Documentation

Showing up to 5 results
|